Regional Weather Roundup
Issued by NWS

Home | Current Version | Previous Version | Text Only | Print | Product List | Glossary Off
Versions: 1 2 3 4 5 6 7 8 9 10 11 12 13 14 15 16 17 18 19 20 21 22 23 24 25 26 27 28 29 30 31 32 33 34 35 36 37 38 39 40 41 42 43 44 45 46 47 48 49 50

000
ASUS43 KDMX 232301
RWRIA

WEATHER ROUNDUP FOR IOWA
NATIONAL WEATHER SERVICE DES MOINES IA
500 PM CST THU FEB 23 2017

NOTE: "FAIR" INDICATES FEW OR NO CLOUDS BELOW 12,000 FEET WITH NO
SIGNIFICANT WEATHER AND/OR OBSTRUCTIONS TO VISIBILITY.

* - THESE STATIONS ARE NOT NWS STATIONS...THUS NOT UNDER NWS
QUALITY CONTROL.  THEY ALSO DO NOT REPORT WEATHER SUCH
AS PRECIPITATION OR FOG.

IAZ001>003-012>014-020>022-031>034-043>046-240000-
   NORTHWEST IOWA

CITY           SKY/WX    TMP DP  RH WIND       PRES   REMARKS
CARROLL *      LGT RAIN  37  37 100 NE24G33   29.64F WCI  26
CHEROKEE *     LGT SNOW  32  31  98 NE23G30   29.70F WCI  19
DENISON *      LGT RAIN  36  34  93 NE23G35   29.62R WCI  24
LE MARS *      LGT RAIN  32  28  86 NE26G37   29.70F WCI  18
ORANGE CITY *  FLURRIES  30  28  93 NE14G30   29.71F WCI  20
SHELDON *      LGT SNOW  30  32 100 NE24G33   29.74F WCI  16
SIOUX CITY     LGT SNOW  34  30  85 NE28G36   29.66F FOG     WCI  21
SPENCER        LGT SNOW  32  29  88 NE28G36   29.76F FOG     WCI  18
STORM LAKE *   LGT SNOW  32  30  93 NE29G39   29.67F WCI  18
$$

IAZ055>058-069>071-079>083-090>094-240000-
   SOUTHWEST IOWA

CITY           SKY/WX    TMP DP  RH WIND       PRES   REMARKS
ATLANTIC *     RAIN      39  37  93 NE18G26   29.60F WCI  30
CLARINDA *     CLOUDY    46  39  76 NE18G24   29.57F
COUNCIL BLFS * CLOUDY    39  39 100 NE25G33   29.57F WCI  28
CRESTON *      CLOUDY    45  39  81 NE22G29   29.57R
HARLAN  *      LGT RAIN  37  37 100 NE21G31   29.64F WCI  27
LAMONI         CLOUDY    48  42  80 NE10      29.56R
RED OAK *      CLOUDY    43  39  87 NE18G26   29.56F
SHENANDOAH *   CLOUDY    43  39  87 NE18G26   29.54F
$$

IAZ047>049-059>061-072>074-084-240000-
   CENTRAL IOWA

CITY           SKY/WX    TMP DP  RH WIND       PRES   REMARKS
AMES           CLOUDY    42  39  89 NE16      29.67R
ANKENY *       CLOUDY    43  37  81 NE17      29.64F
BOONE *        CLOUDY    39  39 100 NE23      29.64S WCI  29
CHARITON *     CLOUDY    48  39  71 NE16G22   29.57S
DES MOINES     CLOUDY    46  38  73 NE18G26   29.62S
GRINNELL*      CLOUDY    43  39  84 NE17G24   29.64F
KNOXVILLE *    CLOUDY    46  39  76 NE16G23   29.59S
MARSHALLTOWN   LGT RAIN  42  38  85 NE16      29.66R
NEWTON *       CLOUDY    43  39  87 NE16G24   29.62R
PELLA *        CLOUDY    46  39  75 NE9G18    29.63R
PERRY *        CLOUDY    41  37  83 NE18G25   29.65S
$$

IAZ004>006-015-016-023>025-035-036-240000-
   NORTH CENTRAL IOWA

CITY           SKY/WX    TMP DP  RH WIND       PRES   REMARKS
ALGONA *       SNOW      34  34 100 NE25      29.76F VSB 1/2 WCI  21
CLARION *        N/A     37  37 100 NE24      29.71S FOG     WCI  26
ESTHERVILLE    LGT SNOW  31  29  92 NE24      29.78F VSB 1   WCI  17
FORT DODGE *   CLOUDY    36  30  80 N16G26    29.71F WCI  26
MASON CITY     CLOUDY    37  33  85 NE16G25   29.77S WCI  28
FOREST CITY *  FLURRIES  36  32  87 NE16      29.78S WCI  26
WEBSTER CITY * LGT RAIN  37  36  93 NE21      29.67F WCI  27
IOWA FALLS *   LGT RAIN  41  37  88 N15G21    29.71R
$$

IAZ007>011-017>019-026>030-037>042-050>054-066-240000-
   NORTHEAST IOWA

CITY           SKY/WX    TMP DP  RH WIND       PRES   REMARKS
CEDAR RAPIDS   LGT RAIN  43  40  89 NE20G25   29.64S
CHARLES CITY * CLOUDY    41  36  81 NE20      29.73F
CLINTON *      MOCLDY    45  42  89 E20G28    29.66F
DECORAH *      CLOUDY    43  32  65 NE12      29.75S
DUBUQUE        CLOUDY    41  38  89 NE16      29.70F
MONTICELLO *   MOCLDY    43  39  87 NE12G20   29.67F
OELWEIN *      CLOUDY    43  37  81 NE15      29.71S
WATERLOO       CLOUDY    42  37  82 NE9       29.69F
$$

IAZ064-065-067-068-078-240000-
   EAST CENTRAL IOWA

CITY           SKY/WX    TMP DP  RH WIND       PRES   REMARKS
DAVENPORT      CLOUDY    46  42  86 E21G28    29.63F
IOWA CITY      LGT RAIN  46  40  79 NE15G25   29.65R
MUSCATINE *    MOCLDY    48  43  81 E15G22    29.65R
QUAD CITIES    CLOUDY    50  44  80 E18G25    29.63F
$$

IAZ062-063-075>077-085>089-095>099-240000-
   SOUTHEAST IOWA

CITY           SKY/WX    TMP DP  RH WIND       PRES   REMARKS
BURLINGTON     MOCLDY    49  46  90 E9        29.60R
FAIRFIELD *    MOCLDY    46  45  93 E23G31    29.54F
KEOKUK *       CLOUDY    50  46  87 E14G21    29.56F
CENTERVILLE *  CLOUDY    45  45 100 E10G17    29.56R
OTTUMWA        MOCLDY    48  43  82 E17       29.58F
WASHINGTON *   MOCLDY    46  45  93 E18G25    29.60F FOG
$$

ABBREVIATIONS USED IN REMARKS
   TC - TEMPERATURES IN CELSIUS
  WCI - WIND CHILL INDEX
   HX - HEAT INDEX
  VSB - VISIBILITY
$$





USA.gov is the U.S. government's official web portal to all federal, state and local government web resources and services.